sat.trackr.live / text

‹ back to catalog

STARLINK-31698

NORAD 59379 · 2024-062F

PAYLOAD ACTIVE UNKNOWN

§ Identity

Operator
Country
US
Launch date
2024-04-02
Launch site
AFWTR
Launch vehicle
Mass (kg)
RCS (m²)

Purposes: comms

External: N2YO · Heavens-Above · Gunter

§ Orbital elements

Epoch: 2026-05-25T01:18:49.743360Z

Period
94.10 min
Inclination
53.1603°
Eccentricity
0.0001023
Mean motion
15.30207037 rev/d
Perigee alt
474.5 km
Apogee alt
475.9 km
Semi-major
6,853.3 km
B*
-6.1286e-5
RAAN
260.9412°
Arg perigee
87.1035°
Mean anomaly
273.0083°
Rev number
12,132

§ Raw data

STARLINK-316981 59379U 24062F   26145.05474240 -.00002174  00000+0 -61286-4 0  99932 59379  53.1603 260.9412 0001023  87.1035 273.0083 15.30207037121327

JSON: /api/v1/satellites/59379 · /tle

For live sub-satellite position, see the globe view (requires WebGL).

§ Visibility from observer

Set your observer location to see the next 7 days of passes ≥ 10°. The values pass through the URL so the page stays shareable.

No JS? Fill the form by hand. The geolocation button needs JavaScript.